Location: Bazugues
(43.4465°N, 0.3432°E)
Time: 11:20:48
(UTC+00:00)

Cosmos 2297 - Pass Details

Date: 12 January 2026
Orbit: 836 x 856 km, 71.0° (Epoch: 10 February)

Event Time Altitude Azimuth Distance (km) Brightness Sun altitude
Rises 17:27:46 0° 335° (NNW) 3,398 6.9 -7.9°
Reaches altitude 10° 17:30:13 10° 336° (NNW) 2,462 6.2 -8.3°
Maximum altitude 17:35:53 85° 65° (ENE) 851 3.7 -9.3°
Drops below altitude 10° 17:41:33 10° 155° (SSE) 2,460 6.1 -10.2°
Sets 17:43:59 0° 156° (SSE) 3,394 6.8 -10.7°
